Date,Time,Wetness (Wet Dry or Ice),Wind Speed (m/s),Temperature (C),Humidity (%),Pressure (mb),Radiation (W/m^2)
2019-10-06,05:05:00,DRY,3.40,11.85,45.5,776.00,0.9
2019-10-06,05:10:00,DRY,4.87,11.90,46.0,776.00,1.1
2019-10-06,05:15:00,DRY,5.75,11.80,45.0,776.00,1.9
2019-10-06,05:20:00,DRY,6.17,11.83,45.3,776.00,1.4
2019-10-06,05:25:00,DRY,7.40,11.75,42.0,776.00,1.1
2019-10-06,05:30:00,DRY,6.93,11.87,42.0,776.00,1.2
2019-10-06,05:35:00,DRY,3.50,11.85,41.5,776.00,0.8
2019-10-06,05:40:00,DRY,2.67,12.10,39.7,776.00,1.3
2019-10-06,05:45:00,DRY,4.15,11.90,42.0,776.00,0.5
2019-10-06,05:50:00,DRY,3.93,11.80,45.3,776.00,1.0
2019-10-06,05:55:00,DRY,6.00,11.60,45.5,776.00,1.4
2019-10-06,06:00:00,DRY,4.40,11.70,44.7,776.00,1.2
2019-10-06,06:05:00,DRY,4.60,11.70,45.0,776.00,1.1
2019-10-06,06:10:00,DRY,5.67,12.20,38.7,776.00,0.4
2019-10-06,06:15:00,DRY,3.55,12.00,41.5,776.00,1.5
2019-10-06,06:20:00,DRY,4.47,11.97,40.0,776.00,0.9
2019-10-06,06:25:00,DRY,6.30,12.35,40.0,776.00,0.3
2019-10-06,06:30:00,DRY,6.30,12.50,38.7,776.00,1.2
2019-10-06,06:35:00,DRY,5.80,12.50,38.5,776.00,1.1
2019-10-06,06:40:00,DRY,6.57,12.57,38.3,776.00,1.2
2019-10-06,06:45:00,DRY,6.80,12.65,35.5,776.00,1.1
2019-10-06,06:50:00,DRY,3.37,12.93,33.7,776.00,2.1
2019-10-06,06:55:00,DRY,2.75,13.10,34.0,776.00,2.5
2019-10-06,07:00:00,DRY,4.33,13.37,28.3,776.00,4.2
2019-10-06,07:05:00,DRY,3.30,13.60,29.0,776.00,6.0
2019-10-06,07:10:00,DRY,3.93,13.50,29.7,776.00,9.3
2019-10-06,07:15:00,DRY,2.95,13.40,29.5,776.00,12.8
2019-10-06,07:20:00,DRY,4.67,13.33,29.3,776.00,15.2
2019-10-06,07:25:00,DRY,4.20,13.45,28.5,776.00,18.2
2019-10-06,07:30:00,DRY,4.03,13.50,27.0,776.00,19.9
2019-10-06,07:35:00,DRY,3.75,13.40,27.0,776.00,22.1
2019-10-06,07:40:00,DRY,3.00,13.67,27.0,776.00,24.5
2019-10-06,07:45:00,DRY,4.70,13.95,24.5,776.00,26.0
2019-10-06,07:50:00,DRY,4.00,14.33,21.0,776.00,27.8
2019-10-06,07:55:00,DRY,3.25,14.50,21.0,776.00,30.6
2019-10-06,08:00:00,DRY,2.70,14.43,21.3,776.00,31.6
2019-10-06,08:05:00,DRY,3.05,14.75,19.0,776.00,32.9
2019-10-06,08:10:00,DRY,2.07,15.07,18.7,776.00,194.1
2019-10-06,08:15:00,DRY,2.75,15.55,18.5,776.00,278.7
2019-10-06,08:20:00,DRY,1.77,15.57,19.3,776.00,301.6
2019-10-06,08:25:00,DRY,1.65,15.25,21.0,776.00,321.8
2019-10-06,08:30:00,DRY,1.03,15.23,21.7,776.00,344.2
2019-10-06,08:35:00,DRY,2.85,15.15,21.5,776.00,365.2
2019-10-06,08:40:00,DRY,3.03,14.73,24.0,776.00,386.8
2019-10-06,08:45:00,DRY,2.50,14.45,25.5,776.50,407.1
2019-10-06,08:50:00,DRY,1.73,13.97,31.3,776.00,428.6
2019-10-06,08:55:00,DRY,3.75,13.70,32.5,776.00,449.1
2019-10-06,09:00:00,DRY,2.77,14.07,29.3,776.67,468.9
2019-10-06,09:05:00,DRY,2.20,14.05,30.5,776.50,488.8
2019-10-06,09:10:00,DRY,3.87,14.17,30.7,777.00,509.1
2019-10-06,09:15:00,DRY,2.35,14.10,32.0,777.00,529.5
2019-10-06,09:20:00,DRY,3.67,14.33,28.7,777.00,547.0
2019-10-06,09:25:00,DRY,3.10,14.75,25.5,777.00,566.9
2019-10-06,09:30:00,DRY,3.20,14.80,25.7,777.00,587.5
2019-10-06,09:35:00,DRY,2.25,15.35,23.5,777.00,603.3
2019-10-06,09:40:00,DRY,3.60,14.93,25.7,777.00,621.5
2019-10-06,09:45:00,DRY,3.00,14.90,23.0,777.00,641.8
2019-10-06,09:50:00,DRY,3.67,14.97,26.0,777.00,657.5
2019-10-06,09:55:00,DRY,5.10,14.80,29.5,777.00,673.4
2019-10-06,10:00:00,DRY,2.63,14.80,33.3,777.00,691.2
2019-10-06,10:05:00,DRY,4.25,14.30,35.0,777.00,706.3
2019-10-06,10:10:00,DRY,2.90,14.53,33.3,777.00,720.8
2019-10-06,10:15:00,DRY,3.50,14.60,36.0,777.00,733.2
2019-10-06,10:20:00,DRY,2.83,14.60,34.3,777.00,751.4
2019-10-06,10:25:00,DRY,2.35,15.00,30.0,777.00,764.9
2019-10-06,10:30:00,DRY,3.40,15.07,33.0,777.00,779.2
2019-10-06,10:35:00,DRY,1.95,14.95,29.0,777.00,794.4
2019-10-06,10:40:00,DRY,2.80,15.20,30.3,777.00,806.9
2019-10-06,10:45:00,DRY,2.30,15.40,28.5,777.00,817.1
2019-10-06,10:50:00,DRY,3.93,15.37,29.7,777.00,831.2
2019-10-06,10:55:00,DRY,3.50,15.25,30.5,777.00,841.8
2019-10-06,11:00:00,DRY,4.03,15.30,27.3,777.00,855.0
2019-10-06,11:05:00,DRY,4.00,14.90,28.0,777.00,865.0
2019-10-06,11:10:00,DRY,2.97,15.10,29.3,777.00,877.0
2019-10-06,11:15:00,DRY,3.80,15.40,27.5,777.00,885.5
2019-10-06,11:20:00,DRY,2.83,15.23,25.7,777.00,897.0
2019-10-06,11:25:00,DRY,2.30,14.85,24.5,777.00,906.0
2019-10-06,11:30:00,DRY,3.47,15.40,25.7,777.00,913.0
2019-10-06,11:35:00,DRY,3.30,15.70,25.0,777.00,920.5
2019-10-06,11:40:00,DRY,1.53,16.27,24.3,777.00,928.8
2019-10-06,11:45:00,DRY,2.30,17.05,21.5,777.00,936.4
2019-10-06,11:50:00,DRY,1.27,17.23,21.3,777.00,944.8
2019-10-06,11:55:00,DRY,1.10,17.45,20.5,777.00,952.9
2019-10-06,12:00:00,DRY,1.67,17.40,17.3,777.00,958.0
2019-10-06,12:05:00,DRY,2.25,17.80,18.5,777.00,964.6
2019-10-06,12:10:00,DRY,2.33,17.53,16.0,777.00,969.3
2019-10-06,12:15:00,DRY,1.95,17.90,18.0,777.00,975.8
2019-10-06,12:20:00,DRY,2.03,17.97,22.7,777.00,976.7
2019-10-06,12:25:00,DRY,1.65,17.80,25.5,777.00,980.1
2019-10-06,12:30:00,DRY,0.67,17.93,30.0,777.00,983.4
2019-10-06,12:35:00,DRY,0.60,18.90,28.0,777.00,987.2
2019-10-06,12:40:00,DRY,1.60,18.47,27.3,777.00,987.9
2019-10-06,12:45:00,DRY,2.20,18.50,28.0,777.00,987.8
2019-10-06,12:50:00,DRY,1.17,18.07,31.7,777.00,988.3
2019-10-06,12:55:00,DRY,2.35,18.35,35.0,777.00,986.5
2019-10-06,13:00:00,DRY,1.30,18.73,32.3,776.67,987.4
2019-10-06,13:05:00,DRY,0.95,18.45,32.5,776.00,986.0
2019-10-06,13:10:00,DRY,1.33,18.53,33.7,776.33,980.2
2019-10-06,13:15:00,DRY,2.25,18.30,34.0,776.00,972.5
2019-10-06,13:20:00,DRY,2.00,18.10,37.3,776.00,968.6
2019-10-06,13:25:00,DRY,2.05,18.10,37.5,776.00,973.9
2019-10-06,13:30:00,DRY,1.70,17.80,37.0,776.00,966.9
2019-10-06,13:35:00,DRY,2.00,16.80,40.0,776.00,964.3
2019-10-06,13:40:00,DRY,1.87,17.23,39.3,776.33,965.4
2019-10-06,13:45:00,DRY,2.30,16.90,40.0,776.00,959.2
2019-10-06,13:50:00,DRY,2.20,17.10,38.7,776.67,950.8
2019-10-06,13:55:00,DRY,2.30,17.45,36.0,776.00,945.5
2019-10-06,14:00:00,DRY,2.70,17.10,35.0,776.33,941.5
2019-10-06,14:05:00,DRY,1.25,16.85,35.0,776.50,935.3
2019-10-06,14:10:00,DRY,1.83,16.97,32.7,776.00,927.0
2019-10-06,14:15:00,DRY,1.80,17.10,30.0,777.00,920.0
2019-10-06,14:20:00,DRY,1.63,17.63,29.0,776.00,913.1
2019-10-06,14:25:00,DRY,1.90,17.95,29.0,776.00,904.7
2019-10-06,14:30:00,DRY,0.90,17.60,32.3,776.00,899.3
2019-10-06,14:35:00,DRY,1.45,17.45,30.5,776.00,888.4
2019-10-06,14:40:00,DRY,1.07,16.93,33.0,776.00,878.2
2019-10-06,14:45:00,DRY,0.95,17.05,36.0,776.00,866.8
2019-10-06,14:50:00,DRY,1.93,17.37,33.3,776.00,854.7
2019-10-06,14:55:00,DRY,2.00,17.10,32.5,776.00,847.0
2019-10-06,15:00:00,DRY,1.33,16.80,37.3,776.00,834.2
2019-10-06,15:05:00,DRY,2.20,16.80,34.0,776.00,824.2
2019-10-06,15:10:00,DRY,1.57,17.00,35.0,776.00,811.9
2019-10-06,15:15:00,DRY,1.75,17.55,35.0,776.00,792.5
2019-10-06,15:20:00,DRY,2.00,17.17,36.7,776.00,782.0
2019-10-06,15:25:00,DRY,1.85,16.50,36.5,776.00,773.5
2019-10-06,15:30:00,DRY,2.80,16.80,33.3,776.00,758.5
2019-10-06,15:35:00,DRY,2.05,16.85,33.5,776.00,742.0
2019-10-06,15:40:00,DRY,2.40,16.37,34.0,776.00,728.2
2019-10-06,15:45:00,DRY,1.90,16.30,34.0,776.00,711.1
2019-10-06,15:50:00,DRY,1.60,16.67,34.0,776.00,697.6
2019-10-06,15:55:00,DRY,2.30,17.15,32.5,776.00,679.8
2019-10-06,16:00:00,DRY,2.23,16.93,31.7,776.00,664.6
2019-10-06,16:05:00,DRY,2.25,16.70,30.0,776.00,643.5
2019-10-06,16:10:00,DRY,2.33,16.67,29.0,776.00,625.9
2019-10-06,16:15:00,DRY,1.10,16.70,29.0,776.00,606.6
2019-10-06,16:20:00,DRY,1.30,16.77,41.7,776.00,592.8
2019-10-06,16:25:00,DRY,2.00,16.00,46.5,776.00,575.6
2019-10-06,16:30:00,DRY,1.40,15.73,47.3,776.00,551.3
2019-10-06,16:35:00,DRY,1.35,16.10,45.5,776.00,533.0
2019-10-06,16:40:00,DRY,1.97,16.17,43.7,776.00,512.9
2019-10-06,16:45:00,DRY,1.85,16.10,44.0,776.00,491.9
2019-10-06,16:50:00,DRY,1.77,16.17,43.7,776.00,473.3
2019-10-06,16:55:00,DRY,0.65,16.40,41.5,776.00,451.0
2019-10-06,17:00:00,DRY,1.50,17.30,38.0,776.00,433.3
2019-10-06,17:05:00,DRY,1.95,16.75,26.5,776.00,412.9
2019-10-06,17:10:00,DRY,2.13,16.37,25.7,776.00,390.1
2019-10-06,17:15:00,DRY,1.45,16.20,27.5,776.00,368.9
2019-10-06,17:20:00,DRY,2.13,16.10,34.3,776.00,348.0
2019-10-06,17:25:00,DRY,2.35,16.10,32.0,776.00,328.2
2019-10-06,17:30:00,DRY,1.17,16.10,33.7,776.00,305.8
2019-10-06,17:35:00,DRY,1.55,15.90,34.0,776.00,285.8
2019-10-06,17:40:00,DRY,1.33,15.67,32.7,776.00,263.1
2019-10-06,17:45:00,DRY,0.75,15.65,30.5,776.00,242.2
2019-10-06,17:50:00,DRY,1.20,15.90,26.7,776.00,221.4
2019-10-06,17:55:00,DRY,1.95,15.75,24.5,776.00,201.7
2019-10-06,18:00:00,DRY,1.27,15.60,24.3,776.00,181.0
2019-10-06,18:05:00,DRY,1.10,15.30,51.0,776.00,160.4
2019-10-06,18:10:00,DRY,2.03,15.03,56.0,776.00,142.1
2019-10-06,18:15:00,DRY,1.60,15.10,59.0,776.00,108.6
2019-10-06,18:20:00,DRY,2.23,14.73,58.7,776.00,38.5
2019-10-06,18:25:00,DRY,0.75,14.65,55.0,776.00,25.1
2019-10-06,18:30:00,DRY,0.87,14.57,52.0,776.00,22.6
2019-10-06,18:35:00,DRY,1.10,14.10,53.0,776.00,21.3
2019-10-06,18:40:00,DRY,1.03,14.00,54.7,776.00,16.2
2019-10-06,18:45:00,DRY,1.30,13.95,54.5,776.00,12.9
2019-10-06,18:50:00,DRY,1.60,14.10,38.5,776.00,10.7
2019-10-06,18:55:00,DRY,1.55,14.70,17.0,776.00,6.4
2019-10-06,19:00:00,DRY,2.10,14.83,14.0,776.00,3.7
2019-10-06,19:05:00,DRY,1.85,14.45,34.5,776.00,2.8
2019-10-06,19:10:00,DRY,2.33,14.23,39.0,776.00,1.5
2019-10-06,19:15:00,DRY,1.75,14.10,41.5,776.00,0.9
2019-10-06,19:20:00,DRY,2.17,14.03,39.7,776.00,1.4
2019-10-06,19:25:00,DRY,1.00,13.80,35.5,776.00,1.1
2019-10-06,19:30:00,DRY,1.73,13.87,21.0,776.00,1.4
2019-10-06,19:35:00,DRY,3.90,13.85,20.0,776.00,1.4
2019-10-06,19:40:00,DRY,2.90,13.80,22.0,776.00,0.8
2019-10-06,19:45:00,DRY,2.10,13.95,23.5,776.00,0.6
2019-10-06,19:50:00,DRY,2.07,14.07,23.3,776.00,1.5
2019-10-06,19:55:00,DRY,2.70,14.05,23.0,776.00,1.6
2019-10-06,20:00:00,DRY,2.37,14.03,23.7,776.33,1.6
2019-10-06,20:05:00,DRY,0.90,13.95,24.0,776.50,2.3
2019-10-06,20:10:00,DRY,2.77,13.80,23.7,776.67,2.0
2019-10-06,20:15:00,DRY,4.75,13.65,24.0,777.00,1.3
2019-10-06,20:20:00,DRY,3.20,13.60,24.0,776.67,1.4
2019-10-06,20:25:00,DRY,1.70,13.70,24.0,777.00,0.7
2019-10-06,20:30:00,DRY,2.17,13.77,24.7,777.00,0.8
2019-10-06,20:35:00,DRY,3.10,13.70,24.0,777.00,0.9
2019-10-06,20:40:00,DRY,3.97,13.63,24.0,777.00,1.4
2019-10-06,20:45:00,DRY,4.55,13.65,24.0,777.00,1.1
2019-10-06,20:50:00,DRY,4.47,13.70,24.0,777.00,1.4
2019-10-06,20:55:00,DRY,4.70,13.85,24.0,777.00,0.9
2019-10-06,21:00:00,DRY,2.07,13.83,24.0,777.00,1.0
2019-10-06,21:05:00,DRY,3.95,13.80,24.5,777.00,0.5
2019-10-06,21:10:00,DRY,3.73,13.73,24.7,777.00,1.0
2019-10-06,21:15:00,DRY,4.65,14.00,24.0,777.00,1.5
2019-10-06,21:20:00,DRY,4.13,13.80,24.3,777.00,1.3
2019-10-06,21:25:00,DRY,5.10,14.00,24.0,777.00,1.4
2019-10-06,21:30:00,DRY,4.67,13.93,24.3,777.00,1.4
2019-10-06,21:35:00,DRY,5.45,14.00,24.5,777.00,2.2
2019-10-06,21:40:00,DRY,5.23,13.87,25.0,777.00,1.2
2019-10-06,21:45:00,DRY,4.00,13.95,24.5,777.00,1.2
2019-10-06,21:50:00,DRY,4.57,14.00,24.3,777.00,1.2
2019-10-06,21:55:00,DRY,4.10,13.70,25.5,777.00,1.1
2019-10-06,22:00:00,DRY,2.60,13.73,26.0,777.00,1.5
2019-10-06,22:05:00,DRY,5.50,13.90,25.0,777.00,1.7
2019-10-06,22:10:00,DRY,4.43,13.97,25.0,777.00,1.6
2019-10-06,22:15:00,DRY,4.25,13.95,25.0,777.00,1.6
2019-10-06,22:20:00,DRY,4.17,14.07,24.7,777.00,1.8
2019-10-06,22:25:00,DRY,5.05,14.05,24.0,777.00,1.2
2019-10-06,22:30:00,DRY,4.23,14.10,24.0,777.00,1.2
2019-10-06,22:35:00,DRY,3.70,14.30,23.0,777.00,3.7
2019-10-06,22:40:00,DRY,3.23,14.33,23.0,777.00,1.1
2019-10-06,22:45:00,DRY,3.45,14.40,21.5,777.00,1.4
2019-10-06,22:50:00,DRY,4.77,14.47,22.0,777.00,1.4
2019-10-06,22:55:00,DRY,4.15,14.45,22.0,777.00,1.5
2019-10-06,23:00:00,DRY,2.80,14.37,22.3,777.00,0.6
2019-10-06,23:05:00,DRY,3.45,14.40,22.0,777.00,1.2
2019-10-06,23:10:00,DRY,2.23,14.40,22.7,777.00,1.3
2019-10-06,23:15:00,DRY,2.95,14.40,23.0,777.00,0.9
2019-10-06,23:20:00,DRY,2.37,14.13,23.3,777.00,1.4
2019-10-06,23:25:00,DRY,3.60,14.20,23.5,777.00,1.9
2019-10-06,23:30:00,DRY,2.13,14.13,23.3,777.00,1.7
2019-10-06,23:35:00,DRY,2.40,13.90,23.5,777.00,2.0
2019-10-06,23:40:00,DRY,2.20,14.13,23.0,777.00,1.6
2019-10-06,23:45:00,DRY,2.45,14.10,23.0,777.00,0.9
2019-10-06,23:50:00,DRY,1.63,14.03,22.7,777.00,2.3
2019-10-06,23:55:00,DRY,3.10,13.70,23.5,777.00,1.9
2019-10-07,00:00:00,DRY,2.23,14.00,21.7,777.00,0.8
2019-10-07,00:05:00,DRY,2.40,14.35,20.5,777.00,1.1
2019-10-07,00:10:00,DRY,2.07,14.53,18.3,777.00,1.6
2019-10-07,00:15:00,DRY,0.75,14.80,18.0,776.00,0.8
2019-10-07,00:20:00,DRY,2.03,14.70,16.7,776.33,1.5
2019-10-07,00:25:00,DRY,1.50,14.65,17.0,776.00,1.3
2019-10-07,00:30:00,DRY,2.07,14.63,16.7,776.00,1.2
2019-10-07,00:35:00,DRY,2.80,14.90,15.0,776.00,1.4
2019-10-07,00:40:00,DRY,2.57,14.87,16.7,776.00,1.2
2019-10-07,00:45:00,DRY,2.00,14.60,17.0,776.00,1.6
2019-10-07,00:50:00,DRY,2.50,14.60,16.0,776.00,0.9
2019-10-07,00:55:00,DRY,2.60,14.50,17.5,776.00,1.4
2019-10-07,01:00:00,DRY,2.70,14.47,18.7,776.00,1.2
2019-10-07,01:05:00,DRY,1.90,14.45,18.0,776.00,0.9
2019-10-07,01:10:00,DRY,2.40,14.50,18.3,776.00,1.1
2019-10-07,01:15:00,DRY,3.35,14.40,18.5,776.00,0.9
2019-10-07,01:20:00,DRY,3.87,14.47,18.0,776.00,1.0
2019-10-07,01:25:00,DRY,2.20,14.65,17.0,776.00,1.4
2019-10-07,01:30:00,DRY,3.33,14.53,17.3,776.00,1.3
2019-10-07,01:35:00,DRY,3.35,14.65,16.0,776.00,1.1
2019-10-07,01:40:00,DRY,3.83,14.73,16.3,776.00,1.0
2019-10-07,01:45:00,DRY,1.60,14.75,16.5,776.00,0.9
2019-10-07,01:50:00,DRY,1.37,14.60,17.0,776.00,1.7
2019-10-07,01:55:00,DRY,2.80,14.50,17.0,776.00,1.6
2019-10-07,02:00:00,DRY,1.97,14.60,16.7,776.00,1.4
2019-10-07,02:05:00,DRY,2.65,14.50,16.5,776.00,1.6
2019-10-07,02:10:00,DRY,2.93,14.33,17.0,776.00,0.6
2019-10-07,02:15:00,DRY,3.25,14.40,17.0,776.00,1.5
2019-10-07,02:20:00,DRY,3.07,14.40,17.0,775.67,1.9
2019-10-07,02:25:00,DRY,3.20,14.55,16.0,775.00,1.2
2019-10-07,02:30:00,DRY,2.53,14.37,17.0,775.00,1.3
2019-10-07,02:35:00,DRY,2.90,14.30,17.0,775.00,0.8
2019-10-07,02:40:00,DRY,3.20,14.27,17.0,775.00,1.1
2019-10-07,02:45:00,DRY,3.70,14.30,17.0,775.00,1.2
2019-10-07,02:50:00,DRY,1.97,14.50,16.0,775.00,0.5
2019-10-07,02:55:00,DRY,1.55,14.45,16.0,775.00,0.9
2019-10-07,03:00:00,DRY,2.03,14.43,16.3,775.00,1.1
2019-10-07,03:05:00,DRY,2.50,14.30,17.0,775.00,1.4
2019-10-07,03:10:00,DRY,2.27,14.33,16.7,775.00,0.7
2019-10-07,03:15:00,DRY,2.30,14.45,16.0,775.00,0.8
2019-10-07,03:20:00,DRY,2.20,14.17,17.0,775.00,1.5
2019-10-07,03:25:00,DRY,2.00,14.45,16.0,775.00,1.2
2019-10-07,03:30:00,DRY,2.00,14.43,16.0,775.00,1.6
2019-10-07,03:35:00,DRY,1.55,14.20,16.0,775.00,1.4
2019-10-07,03:40:00,DRY,1.13,14.43,16.0,775.00,1.6
2019-10-07,03:45:00,DRY,1.15,14.35,15.5,775.00,2.2
2019-10-07,03:50:00,DRY,1.50,14.40,15.7,775.00,1.5
2019-10-07,03:55:00,DRY,1.75,14.30,16.0,775.00,1.2
2019-10-07,04:00:00,DRY,2.10,14.17,16.0,775.00,1.5
2019-10-07,04:05:00,DRY,1.90,14.25,15.0,775.00,1.8
2019-10-07,04:10:00,DRY,1.63,14.37,15.0,775.00,1.8
2019-10-07,04:15:00,DRY,1.65,14.55,14.0,775.00,0.9
2019-10-07,04:20:00,DRY,2.10,14.50,15.0,775.00,1.4
2019-10-07,04:25:00,DRY,1.90,14.15,17.0,775.00,0.6
2019-10-07,04:30:00,DRY,3.50,14.20,16.7,775.00,1.4
2019-10-07,04:35:00,DRY,2.50,14.15,17.0,775.00,2.5
2019-10-07,04:40:00,DRY,2.83,14.37,15.0,775.00,1.4
2019-10-07,04:45:00,DRY,3.80,14.60,14.0,775.00,1.4
2019-10-07,04:50:00,DRY,1.90,14.53,14.7,775.00,1.3
2019-10-07,04:55:00,DRY,3.65,14.45,15.5,775.00,1.6
2019-10-07,05:00:00,DRY,3.47,14.33,16.0,775.00,1.5
2019-10-07,05:05:00,DRY,4.25,14.25,16.0,775.00,1.6
2019-10-07,05:10:00,DRY,3.37,14.27,17.0,775.00,0.6
2019-10-07,05:15:00,DRY,3.70,14.15,17.0,775.00,1.6
2019-10-07,05:20:00,DRY,3.50,14.17,17.0,775.00,1.4
2019-10-07,05:25:00,DRY,3.25,14.30,16.5,775.00,1.2
2019-10-07,05:30:00,DRY,1.97,14.37,16.3,775.00,0.8
2019-10-07,05:35:00,DRY,2.10,14.60,16.0,775.00,1.5
2019-10-07,05:40:00,DRY,3.07,14.40,16.0,775.00,1.0
2019-10-07,05:45:00,DRY,2.45,14.50,16.0,775.00,0.8
2019-10-07,05:50:00,DRY,2.07,14.40,15.3,775.00,1.0
2019-10-07,05:55:00,DRY,2.55,14.40,15.5,775.00,1.7
2019-10-07,06:00:00,DRY,1.83,14.43,15.0,775.00,1.0
2019-10-07,06:05:00,DRY,2.05,14.30,15.0,775.00,1.9
2019-10-07,06:10:00,DRY,1.83,14.43,15.0,775.00,1.8
2019-10-07,06:15:00,DRY,2.50,14.50,15.0,775.00,1.2
2019-10-07,06:20:00,DRY,2.60,14.50,14.3,775.00,1.1
2019-10-07,06:25:00,DRY,2.80,14.55,14.0,775.00,1.5
2019-10-07,06:30:00,DRY,2.47,14.50,14.0,775.33,1.1
2019-10-07,06:35:00,DRY,3.35,14.60,14.0,775.50,1.5
2019-10-07,06:40:00,DRY,3.00,14.43,14.0,776.00,1.3
2019-10-07,06:45:00,DRY,2.80,14.40,14.0,776.00,1.6
2019-10-07,06:50:00,DRY,2.43,14.40,14.0,776.00,1.5
2019-10-07,06:55:00,DRY,2.40,14.40,14.0,776.00,2.5
2019-10-07,07:00:00,DRY,2.37,14.37,14.0,776.00,4.2
2019-10-07,07:05:00,DRY,2.35,14.40,14.0,776.00,6.2
2019-10-07,07:10:00,DRY,2.63,14.40,14.0,776.00,9.0
2019-10-07,07:15:00,DRY,2.70,14.50,14.0,776.00,12.3
2019-10-07,07:20:00,DRY,2.83,14.37,14.0,776.00,15.3
2019-10-07,07:25:00,DRY,3.05,14.40,14.0,776.00,18.4
2019-10-07,07:30:00,DRY,2.93,14.53,14.0,776.00,20.5
2019-10-07,07:35:00,DRY,2.65,14.50,14.0,776.00,22.9
2019-10-07,07:40:00,DRY,3.30,14.57,14.0,776.00,25.0
2019-10-07,07:45:00,DRY,2.65,14.65,14.0,776.00,27.8
2019-10-07,07:50:00,DRY,3.87,14.67,14.0,776.00,28.7
2019-10-07,07:55:00,DRY,2.55,14.75,14.0,776.00,31.4
2019-10-07,08:00:00,DRY,3.57,14.77,14.0,776.00,32.8
2019-10-07,08:05:00,DRY,1.95,14.90,14.0,776.00,35.2
2019-10-07,08:10:00,DRY,2.27,15.10,14.0,776.00,166.7
2019-10-07,08:15:00,DRY,2.25,15.25,13.5,776.00,273.8
2019-10-07,08:20:00,DRY,2.30,15.27,12.3,776.00,296.2
2019-10-07,08:25:00,DRY,2.00,15.60,12.5,776.00,317.4
2019-10-07,08:30:00,DRY,2.77,15.73,13.0,776.00,338.7
2019-10-07,08:35:00,DRY,1.55,15.75,13.0,776.00,360.0
2019-10-07,08:40:00,DRY,1.93,15.87,13.0,776.00,381.6
2019-10-07,08:45:00,DRY,2.40,15.90,12.5,776.00,403.0
2019-10-07,08:50:00,DRY,3.70,16.00,13.0,776.00,423.8
2019-10-07,08:55:00,DRY,1.60,16.00,13.0,776.00,445.4
2019-10-07,09:00:00,DRY,1.93,16.07,13.0,776.00,465.4
2019-10-07,09:05:00,DRY,1.05,16.20,13.0,776.00,485.9
2019-10-07,09:10:00,DRY,1.80,16.13,13.0,776.00,506.0
2019-10-07,09:15:00,DRY,2.30,16.20,13.5,776.00,527.0
2019-10-07,09:20:00,DRY,1.43,16.33,14.0,776.00,546.3
2019-10-07,09:25:00,DRY,1.10,16.35,13.0,776.00,566.1
2019-10-07,09:30:00,DRY,1.63,16.33,13.0,776.00,583.5
2019-10-07,09:35:00,DRY,2.20,16.20,14.0,776.00,604.0
2019-10-07,09:40:00,DRY,1.90,16.50,13.3,776.00,621.0
2019-10-07,09:45:00,DRY,1.50,16.45,13.0,776.00,638.5
2019-10-07,09:50:00,DRY,2.20,16.57,13.0,776.00,655.5
2019-10-07,09:55:00,DRY,1.15,16.85,13.0,776.00,672.5
2019-10-07,10:00:00,DRY,0.70,17.00,13.3,776.00,689.8
2019-10-07,10:05:00,DRY,1.00,17.70,13.0,776.00,706.6
2019-10-07,10:10:00,DRY,1.23,17.50,12.7,776.00,722.5
2019-10-07,10:15:00,DRY,1.80,17.50,12.5,776.00,738.2
2019-10-07,10:20:00,DRY,1.37,18.00,13.0,776.00,753.2
2019-10-07,10:25:00,DRY,1.60,18.00,13.5,776.00,767.0
2019-10-07,10:30:00,DRY,0.65,18.15,11.0,776.00,780.9
2019-10-07,10:35:00,DRY,2.35,17.70,11.5,776.00,791.8
2019-10-07,10:40:00,DRY,1.70,17.77,12.7,776.00,806.7
2019-10-07,10:45:00,DRY,1.10,17.80,13.0,776.00,818.5
2019-10-07,10:50:00,DRY,1.43,18.30,12.0,776.00,831.9
2019-10-07,10:55:00,DRY,1.70,18.55,13.0,776.00,842.8
2019-10-07,11:00:00,DRY,1.50,18.50,12.0,776.00,854.8
2019-10-07,11:05:00,DRY,1.90,18.80,11.5,776.00,866.0
2019-10-07,11:10:00,DRY,1.67,18.57,11.7,776.00,875.9
2019-10-07,11:15:00,DRY,1.15,18.35,12.5,776.00,886.5
2019-10-07,11:20:00,DRY,0.70,18.30,12.3,776.00,898.2
2019-10-07,11:25:00,DRY,2.90,18.50,13.5,776.00,905.0
2019-10-07,11:30:00,DRY,2.50,18.67,13.0,776.00,911.4
2019-10-07,11:35:00,DRY,2.35,18.45,16.5,776.00,919.4
2019-10-07,11:40:00,DRY,1.47,18.73,14.3,776.00,928.4
2019-10-07,11:45:00,DRY,1.35,18.35,14.5,776.00,934.9
2019-10-07,11:50:00,DRY,1.87,18.23,13.7,776.00,942.7
2019-10-07,11:55:00,DRY,1.25,18.40,14.0,776.00,946.4
2019-10-07,12:00:00,DRY,1.40,18.40,13.7,776.00,954.1
2019-10-07,12:05:00,DRY,1.50,18.05,15.5,776.00,957.7
2019-10-07,12:10:00,DRY,1.53,18.37,16.3,776.00,962.8
2019-10-07,12:15:00,DRY,1.05,18.25,15.5,776.00,970.5
2019-10-07,12:20:00,DRY,2.30,18.03,16.7,776.00,971.9
2019-10-07,12:25:00,DRY,1.20,17.70,18.5,776.00,976.7
2019-10-07,12:30:00,DRY,1.30,17.63,21.7,776.00,978.3
2019-10-07,12:35:00,DRY,2.10,17.80,20.0,776.00,979.8
2019-10-07,12:40:00,DRY,1.30,17.03,22.3,776.00,979.8
2019-10-07,12:45:00,DRY,0.70,17.00,27.5,776.00,983.8
2019-10-07,12:50:00,DRY,1.87,17.23,27.7,776.00,984.3
2019-10-07,12:55:00,DRY,0.80,17.20,30.0,776.00,982.2
2019-10-07,13:00:00,DRY,0.97,17.77,28.7,776.00,984.2
2019-10-07,13:05:00,DRY,1.75,18.45,27.5,776.00,984.1
2019-10-07,13:10:00,DRY,2.43,16.83,33.0,776.00,979.6
2019-10-07,13:15:00,DRY,3.45,16.35,32.5,776.00,974.2
2019-10-07,13:20:00,DRY,3.10,16.27,32.7,776.00,972.7
2019-10-07,13:25:00,DRY,1.95,16.75,30.0,776.00,969.8
2019-10-07,13:30:00,DRY,2.50,16.90,27.0,776.00,966.1
2019-10-07,13:35:00,DRY,2.30,16.60,29.0,776.00,959.7
2019-10-07,13:40:00,DRY,2.23,17.17,29.7,776.00,950.3
2019-10-07,13:45:00,DRY,1.15,17.40,32.0,776.00,944.7
2019-10-07,13:50:00,DRY,2.93,17.10,32.3,776.00,940.3
2019-10-07,13:55:00,DRY,1.50,17.50,31.5,776.00,938.0
2019-10-07,14:00:00,DRY,2.00,17.50,32.0,776.00,935.5
2019-10-07,14:05:00,DRY,2.15,17.50,34.0,776.00,927.7
2019-10-07,14:10:00,DRY,1.70,17.20,36.7,776.00,927.0
2019-10-07,14:15:00,DRY,3.75,16.65,35.0,776.00,915.5
2019-10-07,14:20:00,DRY,1.73,16.83,33.3,776.00,900.0
2019-10-07,14:25:00,DRY,2.80,16.70,35.5,776.00,892.1
2019-10-07,14:30:00,DRY,0.93,17.17,36.3,775.33,883.9
2019-10-07,14:35:00,DRY,1.75,17.60,36.0,775.00,882.1
2019-10-07,14:40:00,DRY,1.47,16.97,36.3,775.00,868.6
2019-10-07,14:45:00,DRY,2.60,16.85,34.5,775.00,861.5
2019-10-07,14:50:00,DRY,3.03,17.20,34.7,775.00,848.5
2019-10-07,14:55:00,DRY,2.20,17.15,34.0,775.00,839.5
2019-10-07,15:00:00,DRY,1.73,17.23,34.7,775.00,828.4
2019-10-07,15:05:00,DRY,2.40,17.75,31.5,775.00,813.4
2019-10-07,15:10:00,DRY,1.43,16.73,33.7,775.33,801.2
2019-10-07,15:15:00,DRY,1.55,16.65,34.0,775.00,787.7
2019-10-07,15:20:00,DRY,1.87,16.90,33.7,775.00,771.5
2019-10-07,15:25:00,DRY,1.85,17.30,34.0,775.00,757.9
2019-10-07,15:30:00,DRY,1.87,16.57,35.3,775.00,739.6
2019-10-07,15:35:00,DRY,2.00,17.50,35.5,775.00,725.0
2019-10-07,15:40:00,DRY,1.50,16.70,36.7,775.00,709.2
2019-10-07,15:45:00,DRY,1.40,17.40,31.0,775.00,697.9
2019-10-07,15:50:00,DRY,1.13,16.80,34.3,775.00,684.8
2019-10-07,15:55:00,DRY,1.80,16.70,37.0,775.00,665.5
2019-10-07,16:00:00,DRY,1.03,16.17,38.3,775.33,651.6
2019-10-07,16:05:00,DRY,1.40,16.45,37.5,775.00,632.8
2019-10-07,16:10:00,DRY,1.07,17.00,35.0,775.00,617.9
2019-10-07,16:15:00,DRY,1.00,17.60,35.5,775.00,601.1
2019-10-07,16:20:00,DRY,2.00,18.30,32.7,775.00,581.5
2019-10-07,16:25:00,DRY,1.60,17.65,32.5,775.00,567.6
2019-10-07,16:30:00,DRY,0.63,18.10,30.7,775.00,547.3
2019-10-07,16:35:00,DRY,1.30,18.70,20.0,775.00,532.1
2019-10-07,16:40:00,DRY,1.20,18.90,23.3,775.00,511.1
2019-10-07,16:45:00,DRY,1.15,18.80,18.5,775.00,492.6
2019-10-07,16:50:00,DRY,2.13,18.70,18.3,775.00,468.2
2019-10-07,16:55:00,DRY,0.95,18.65,23.0,775.00,450.9
2019-10-07,17:00:00,DRY,1.67,18.43,22.3,775.00,427.4
2019-10-07,17:05:00,DRY,1.65,18.70,24.5,775.00,408.5
2019-10-07,17:10:00,DRY,2.57,18.67,15.3,775.00,388.1
2019-10-07,17:15:00,DRY,1.20,18.50,21.0,775.00,367.8
2019-10-07,17:20:00,DRY,1.70,18.20,18.7,775.00,344.9
2019-10-07,17:25:00,DRY,1.65,18.45,15.0,775.00,323.8
2019-10-07,17:30:00,DRY,1.53,17.83,26.0,775.00,300.7
2019-10-07,17:35:00,DRY,2.10,17.25,31.5,775.00,279.0
2019-10-07,17:40:00,DRY,1.40,17.13,28.7,775.00,257.4
2019-10-07,17:45:00,DRY,1.25,17.35,34.5,775.00,235.8
2019-10-07,17:50:00,DRY,1.47,17.00,31.7,775.00,214.4
2019-10-07,17:55:00,DRY,1.70,17.20,25.0,775.00,193.9
2019-10-07,18:00:00,DRY,1.20,16.80,28.0,775.00,174.6
2019-10-07,18:05:00,DRY,1.55,17.00,27.5,775.00,154.8
2019-10-07,18:10:00,DRY,1.13,16.27,30.3,775.00,135.4
2019-10-07,18:15:00,DRY,0.95,15.95,28.5,775.00,111.9
2019-10-07,18:20:00,DRY,1.20,16.07,28.7,775.00,34.6
2019-10-07,18:25:00,DRY,1.20,16.00,29.5,775.00,24.4
2019-10-07,18:30:00,DRY,2.00,16.13,23.0,775.00,21.7
2019-10-07,18:35:00,DRY,2.30,16.30,20.0,775.00,18.7
2019-10-07,18:40:00,DRY,3.40,16.37,16.7,775.00,15.2
2019-10-07,18:45:00,DRY,3.30,16.25,14.0,775.00,11.8
2019-10-07,18:50:00,DRY,4.13,16.37,11.3,775.00,9.6
2019-10-07,18:55:00,DRY,3.85,16.35,11.0,775.50,6.1
2019-10-07,19:00:00,DRY,4.47,16.33,10.7,775.00,3.9
2019-10-07,19:05:00,DRY,3.95,16.20,11.0,775.50,3.4
2019-10-07,19:10:00,DRY,3.63,15.93,13.0,775.33,1.6